CZ-4C DEB, 45484

Orbit data source: Space-Track

CZ-4C DEB, 45484 is space debris in LEO originally from a launch on Tue, 10 Apr 2018 UTC launched from the Jiuquan Satellite Launch Center, China (JSC). Debris objects in space refer to the collection of defunct objects orbiting the Earth. Examples of debris include non-operational satellites, rocket bodies, and fragments generated from explosions, collisions, or faulty payload assembly.

Loading next visibility...
Identifier
45484, 2018-034M
Orbit
LEO
Country
Flag of CNCN / PRC
Related business
Manufacturer
Unknown
Mission
Spacecraft
Bus & Motor
Unknown
Mass
Unknown
Launch date (UTC)
2018-04-10 (8 years ago)
Launch vehicle
Unknown
Launch site
Jiuquan Satellite Launch Center, China (JSC)
Object type
Payload
Rocket body
Debris
Shape & HBR
Unknown shape, 0.1 m
Radar Cross Section
Small (<0.1 m²)

Expand to show TLE details & history
Last TLE update: 19 hours ago

TLE from 19 hours ago
0 CZ-4C DEB
1 45484U 18034M   26123.03761305 -.00000079  00000-0  15511-4 0  9994
2 45484  63.3886 237.7582 0261807   8.5586 351.9776 13.42940761361343
Epoch: 2026-05-03T00:54Z
TLE epoch observation values (Epoch: 2026-05-03T00:54:09.767Z)
Latitude
0.00001°
Longitude
3.2706°
Altitude
906.37 km
Speed
7.495 km/s
True Right ascension
15h 51m 01s
True Declination
0° 00' 00"
Sunlit
Object was in full shadow at epoch
Visualization orbit readout
Latitude
Unknown
Longitude
Unknown
Altitude
Unknown
Speed
Unknown
Apparent Right ascension
Unknown
Apparent Declination
Unknown
Sunlit
N/A
Visualization observer readout
Local Sidereal Time
03:47:35
Azimuth
Unknown
Elevation
Unknown
Doppler factor
Unknown
Orbital elements
Apogee altitude
1,292.885 km
Perigee altitude
901.467 km
Semi-major axis
7,475.313 km
Eccentricity
0.02618
Inclination
63.3886°
RAAN
237.7582°
Arg. of periapsis
8.5586°
True anomaly
351.54491°
Mean anomaly
351.9776°
Eccentric anomaly
351.76268°
Mean motion
3.35814 °/min
Orbital period
107.2 mins
BSTAR
0.000015511
Loading maneuver chart data...
Computing Atmospheric mass density...
Loading historical data...
Loading historical data...
Loading historical data...
Loading historical data...
Loading historical data...
Loading historical data...
Loading historical data...

Documentation

Showing up to 5 results
|